Regional Weather Roundup
Issued by NWS

Home | Current Version | Previous Version | Graphics & Text | Print | Product List | Glossary On
Versions: 1 2 3 4 5 6 7 8 9 10 11 12 13 14 15 16 17 18 19 20 21 22 23 24 25 26 27 28 29 30 31 32 33 34 35 36 37 38 39 40 41 42 43 44 45 46 47 48 49 50
000
ASUS43 KMKX 241500
RWRWI

WISCONSIN REGIONAL WEATHER ROUNDUP
NATIONAL WEATHER SERVICE MILWAUKEE/SULLIVAN WI
1000 AM CDT SAT SEP 24 2016

NOTE: "FAIR" INDICATES FEW OR NO CLOUDS BELOW 12,000 FEET WITH NO
SIGNIFICANT WEATHER AND/OR OBSTRUCTIONS TO VISIBILITY.

WIZ001-002-006>008-014>016-023>028-241600-
NORTHWEST WISCONSIN

CITY           SKY/WX    TMP DP  RH WIND       PRES   REMARKS
SUPERIOR ARPT  CLOUDY    57  55  91 E6        30.17S
ASHLAND        CLOUDY    62  55  77 SE5       30.19F
HAYWARD        CLOUDY    59  55  87 VRB6      30.18F
SIREN          CLOUDY    60  57  89 SE6       30.15S
CUMBERLAND     CLOUDY    57  55  94 SE9       30.17S FOG
RICE LAKE      CLOUDY    59  56  90 E10       30.18F FOG
CHETEK         NOT AVBL
LADYSMITH      CLOUDY    60  56  86 SE9       30.22S
EAU CLAIRE     NOT AVBL
MENOMONIE      CLOUDY    64  59  85 E9        30.17S
NEW RICHMOND   CLOUDY    61  60  94 SE10G16   30.14S FOG
OSCEOLA        CLOUDY    62  62 100 E9        30.15F
$$

WIZ003>005-009-010-017-018-241600-
NORTH CENTRAL WISCONSIN

CITY           SKY/WX    TMP DP  RH WIND       PRES   REMARKS
MANITOWISH WTR NOT AVBL
ARBOR VITAE    CLOUDY    59  55  84 S8        30.24F
WOODRUFF       CLOUDY    59  55  84 S8        30.24F
RHINELANDER    CLOUDY    59  56  89 SE8       30.26S
EAGLE RIVER    CLOUDY    57  52  84 SE8       30.25F
LAND O LAKES   CLOUDY    57  53  85 S7        30.27F
PHILLIPS       CLOUDY    58  55  90 SE8       30.22S
TOMAHAWK       CLOUDY    58  54  85 SE5       30.25S
MEDFORD        CLOUDY   N/A N/A N/A SE7       30.23S
MERRILL        CLOUDY    59  57  91 SE10      30.25S
$$

WIZ029-030-035-036-043>047-241600-
CENTRAL WISCONSIN

CITY           SKY/WX    TMP DP  RH WIND       PRES   REMARKS
WAUSAU         CLOUDY    60  56  86 SE10      30.24S
MOSINEE        NOT AVBL
MARSHFIELD     CLOUDY    62  56  80 E9        30.22S
STEVENS POINT  CLOUDY    58  56  95 E9        30.25S
WAUPACA        CLOUDY    64  59  84 E9        30.26R
WAUTOMA        CLOUDY    63  58  83 SE6       30.25
WISC RAPIDS    LGT RAIN  62  59  90 SE9       30.24S
CAMP DOUGLAS   CLOUDY    61  61 100 E9        30.21S
$$

WIZ011>013-019>022-031-037>040-048>050-241600-
NORTHEAST WISCONSIN

CITY           SKY/WX    TMP DP  RH WIND       PRES   REMARKS
ANTIGO         CLOUDY    57  55  92 SE8       30.27S
SHAWANO        CLOUDY    64  56  77 E8        30.28S
OCONTO         NOT AVBL
STURGEON BAY   MOSUNNY   63  51  65 E9        30.30S
GREEN BAY      MOSUNNY   63  57  81 E8        30.28R
MANITOWOC      NOT AVBL
APPLETON       PTSUNNY   63  54  72 E10       30.24S
CLINTONVILLE   NOT AVBL
OSHKOSH        CLOUDY    62  56  80 E8        30.24S
$$

WIZ032>034-041-042-053>061-241600-
SOUTHWEST WISCONSIN

CITY           SKY/WX    TMP DP  RH WIND       PRES   REMARKS
LA CROSSE      CLOUDY    67  62  84 SE8       30.16F
SPARTA         CLOUDY    63  60  91 E6        30.19F
VIROQUA        CLOUDY    62  62 100 E9        30.19S
BOSCOBEL       CLOUDY    67  62  84 E8        30.18S
PRAIRIE DU CHI CLOUDY    66  63  88 E6        30.15S FOG
PLATTEVILLE    CLOUDY    65  64  96 E12       30.18S
$$

WIZ056-057-062-063-064-067-068-241600-
SOUTH CENTRAL WISCONSIN

CITY           SKY/WX    TMP DP  RH WIND       PRES   REMARKS
REEDSBURG      NOT AVBL
BARABOO/DELLS  CLOUDY    60  58  94 E6        30.21S
LONE ROCK      NOT AVBL
MINERAL POINT  CLOUDY    66  63  88 E7        30.19R
MADISON        CLOUDY    62  59  90 E8G21     30.21S
MIDDLETON      CLOUDY    64  62  94 E10       30.21S
WATERTOWN      CLOUDY    63  59  87 E13       30.21F
MONROE         CLOUDY    63  61  94 E9        30.19S
JANESVILLE     CLOUDY    66  63  88 E10       30.20S
$$

WIZ051-052-058>065-066-070>072-241600-
SOUTHEAST WISCONSIN

CITY           SKY/WX    TMP DP  RH WIND       PRES   REMARKS
MILWAUKEE      CLOUDY    65  58  78 E10       30.24R
WAUKESHA       PTSUNNY   63  55  77 E10       30.24S
MILWAUKEE/TIMM PTSUNNY   63  54  72 E12       30.24S
RACINE         CLOUDY    66  58  75 E12       30.24S
BURLINGTON     CLOUDY    63  57  79 E12       30.22R
KENOSHA        CLOUDY    65  59  81 E13       30.22F
FOND DU LAC    CLOUDY    63  56  78 E9        30.24S
SHEBOYGAN      PTSUNNY   63  55  75 E13       30.26S
WEST BEND      CLOUDY    61  55  82 E9        30.24S
JUNEAU         CLOUDY    62  56  82 E10       30.24S
$$

LSZ147-162-241600-
LAKE SUPERIOR

STATION/POSITION TIME  TEMP    WIND        PRES    WAVE
                       AIR SEA DIR/SP/G            HT/PER
                 (UTC) (F)     (DEG/KT/KT) (MB)    (FT/S)
W MID LAKE BUOY  1350   59 60  140/ 14/ 16 1023.4S   2/ 4
DEVILS ISLAND    1400   61     120/  8/ 10 1022.9F
SAXON HARBOR     1440   63     180/  3/ 10 1022.0F
$$

LMZ867-665-643>646-241600-
LAKE MICHIGAN

STATION/POSITION TIME  TEMP    WIND        PRES    WAVE
                       AIR SEA DIR/SP/G            HT/PER
                 (UTC) (F)     (DEG/KT/KT) (MB)    (FT/S)
CHAMBERS ISLAND  1400   61      90/  6/ 12 1025.7R
S GREEN BAY BUOY 1400   62 66  100/ 10/ 12 1024.9R
N MID LAKE BUOY  1350   60 68  140/ 12/ 16 1025.8F   2/ 4
NORTHPORT PIER   1400   62     120/ 10/ 13 1026.1R
SISTER BAY       1323   61     140/  7/  9   N/A
KEWAUNEE LAKESHO 1400   61     100/  9/ 12 1024.8R
SHEBOYGAN LAKESH 1400   62     120/ 14/ 15 1024.2R
PORT WASHINGTON  1400   61      90/  5/  7 1025.1
ATWATER BUOY     1400   63 62  110/ 12/ 14 1023.6F
MILWAUKEE LAKESH 1410   63      80/  9/ 10   N/A
S MID LAKE BUOY  1350   63 72  100/ 16/ 19 1022.7F   3/ 5
KENOSHA   LAKESH 1400   64      90/ 11/ 12 1023.0R
$$

TC  - TEMPERATURE IN CELSIUS
VSB - VISIBILITY IN STATUTE MILES
WCI - WIND CHILL INDEX
HX  - HEAT INDEX




USA.gov is the U.S. government's official web portal to all federal, state and local government web resources and services.